Location: Unspecified
(49.2170°N, 0.0000°E)
Time: 00:50:54
(UTC+00:00)

Transit 2A - Pass Details

Date: 19 June 2019
Orbit: 595 x 964 km, 66.7° (Epoch: 22 July)

Event Time Altitude Azimuth Distance (km) Brightness Sun altitude
Rises 00:23:40 0° 185° (S) 3,610 - -17.2°
Reaches altitude 10° 00:26:22 10° 178° (S) 2,686 - -17.2°
Exits shadow 00:29:00 24° 162° (SSE) 1,900 7.5 -17.1°
Maximum altitude 00:32:07 38° 113° (ESE) 1,441 7.3 -17.0°
Drops below altitude 10° 00:37:50 10° 48° (NE) 2,668 9.5 -16.9°
Sets 00:40:30 0° 41° (NE) 3,584 10.5 -16.8°
